Weather in Laishevo

Russia / Republic of Tatarstan     55°24′08″N   49°32′35″E
temp.,
°C
wind,
m/s
gust,
m/s
humid.,
%
clouds,
%
prec.,
mm/h
press.,
hPa
HPBL,
m
20 april, tue
tue2000:00+1e614460 0.0 1030381
03:000e612550 0.0 1031257
06:00+1e511590 0.0 1031297
09:00+5ese710380 0.0 1032937
12:00+8ese79290 0.0 10311284
15:00+9ese79270 0.0 10291383
18:00+7ese5104127 0.0 1029261
21:00+4ese5134844 0.0 1028262
21 april, wed
wed2100:00+3ese71649100 0.0 1027439
03:00+3se71651100 0.0 1027563
06:00+3se91751100 0.0 1025669
09:00+5se91647100 0.0 1024861
12:00+5sse81549100 0.1 10241002
15:00+3sse91876100 1.5 1023832
18:00+1sse81898100 3.9 1023694
21:00+1sse81799100 9.9 1022648
22 april, thu
thu2200:00+1sse71499100 1.7 1022607
03:00+2sse61398100 1.8 1023488
06:00+3sse51299100 0.2 1023440
09:00+3sse51299100 1.1 1024483
12:00+4s5119799 0.0 1024450
15:00+8s51085100 0.0 1024675
18:00+7sse6128899 0.0 1024377
21:00+4sse5129594 0.1 1025329
23 april, fri
fri2300:00+4sse51197100 0.1 1024354
03:00+4sse4995100 0.9 1025319
06:00+4sse379499 0.0 1026230
09:00+7s458572 0.0 1026423
12:00+10sse337427 0.0 1026606
15:00+12se22656 0.0 1025674
18:00+10ese357472 0.0 1024129
21:00+7e2383100 0.0 102436
24 april, sat
sat2400:00+7e3582100 0.0 102270
03:00+6e4988100 0.0 1021207
06:00+6ene4986100 0.0 1020324
09:00+9e5675100 0.0 1018663
12:00+10e4569100 0.0 10161090
15:00+7e4690100 0.6 1015371
18:00+7e2492100 0.1 1014336
21:00+6se2295100 0.2 1012148